596  
ASUS41 KBOX 250404  
RWRBOX  
 
REGIONAL WEATHER ROUNDUP  
NATIONAL WEATHER SERVICE BOSTON/NORTON MA  
1200 AM EDT FRI SEP 25 2020  
 
NOTE: "FAIR" INDICATES FEW OR NO CLOUDS BELOW 12,000 FEET WITH NO  
SIGNIFICANT WEATHER AND/OR S TO VISIBILITY
.  
 
MAZALL-250500-  
EASTERN MASSACHUSETTS  
 
CITY SKY/WX TMP DP RH WIND PRES REMARKS
 
BOSTON PTCLDY 66 55 67 SW12 29.98S  
BEVERLY MOCLDY 63 54 72 CALM 29.97S  
LAWRENCE MOCLDY 63 55 75 S5 29.99S  
BEDFORD MOCLDY 61 53 75 CALM 29.97S  
BLUE HILL N/A 63 54 72 SW12 29.99S  
NORWOOD PTCLDY 55 51 86 CALM 29.99S  
MARSHFIELD PTCLDY 64 59 82 SW6 29.99S  
PLYMOUTH CLEAR 57 55 93 CALM 30.01R  
TAUNTON CLEAR 60 56 86 CALM 30.00S  
NEW BEDFORD CLEAR 57 55 93 S3 30.00S  

 
 
MAZALL-250500-  
CAPE COD AND THE ISLANDS  
 
CITY SKY/WX TMP DP RH WIND PRES REMARKS
 
FALMOUTH CLEAR 63 57 82 W7 30.02R  
HYANNIS PTCLDY 60 58 92 SW5 30.00R  
CHATHAM PTCLDY 62 59 90 SW5 30.02S  
PROVINCETOWN PTCLDY 62 60 93 S9 30.00S  
NANTUCKET MOCLDY 63 60 90 SW9 30.02S  
MARTHAS VNYRD PTCLDY 62 61 96 CALM 30.02R  

 
 
MAZALL-250500-  
CENTRAL AND WESTERN MASSACHUSETTS  
 
CITY SKY/WX TMP DP RH WIND PRES REMARKS
 
WORCESTER PTCLDY 61 53 75 W10 30.01S  
FITCHBURG PTCLDY 58 51 78 CALM 30.00R  
ORANGE PTCLDY 53 52 96 CALM 30.02R  
SPRINGFIELD PTCLDY 53 53 99 CALM 29.99S  
WESTFIELD PTCLDY 54 54 100 CALM 30.00S  
NORTH ADAMS PTCLDY 52 50 93 CALM 30.02S  
PITTSFIELD CLEAR 54 52 93 CALM 30.02S  

 
 
RIZALL-250500-  
RHODE ISLAND  
 
CITY SKY/WX TMP DP RH WIND PRES REMARKS
 
PROVIDENCE PTCLDY 62 57 83 W3 30.01S  
NEWPORT CLEAR 64 58 80 NW3 30.01R  
BLOCK ISLAND CLEAR 63 60 90 SW9 30.03R  
SMITHFIELD PTCLDY 61 58 90 SW3 30.02R  
WESTERLY CLEAR 60 57 89 CALM 30.02R  

 
 
CTZALL-250500-  
CONNECTICUT  
 
CITY SKY/WX TMP DP RH WIND PRES REMARKS
 
BRADLEY INTL PTCLDY 61 55 81 S5 30.00S  
HARTFORD PTCLDY 61 56 83 CALM 30.00S  
BRIDGEPORT CLEAR 63 59 87 CALM 30.01S  
DANBURY CLEAR 54 52 93 SW3 30.03S  
GROTON CLEAR 59 57 93 CALM 30.01R  
NEW HAVEN CLEAR 61 58 90 CALM 30.01R  
CHESTER FAIR 61 59 94 CALM 30.02S  
MERIDEN CLEAR 56 53 90 CALM 30.01S  
WILLIMANTIC PTCLDY 54 52 93 NE3 30.01F  
OXFORD CLEAR 59 55 87 CALM 30.03F  

 
 
MEZ002-015-021-024-NHZ003-005-008-011-012-014-VTZ005-008-250500-  
NORTHERN NEW ENGLAND  
 
CITY SKY/WX TMP DP RH WIND PRES REMARKS
 
PORTLAND ME MOCLDY 66 55 67 NE3 29.97S  
BANGOR ME MOCLDY 59 47 64 N9 29.99R  
CONCORD NH MOCLDY 57 52 83 CALM 29.98S  
MANCHESTER NH MOCLDY 64 53 67 CALM 29.96S  
NASHUA NH PTCLDY 59 57 93 CALM 29.99R  
PORTSMOUTH NH CLOUDY 65 53 65 NW3 29.95S  
JAFFREY NH PTCLDY 55 51 86 S3 30.01S  
KEENE NH PTCLDY 52 51 97 CALM 30.01R FOG  
BURLINGTON VT PTCLDY 59 54 83 CALM 30.01R  
MT. WASHINGTON FOG 43 43 100 W33 N/A VSB 0 WCI 32  

 
 
NYZ052-076-250500-  
EASTERN NEW YORK  
 
CITY SKY/WX TMP DP RH WIND PRES REMARKS
 
ALBANY PTCLDY 55 55 100 S3 30.00S  
NEW YORK CITY MOCLDY 69 56 62 S7 30.01R  

 
 
ANZALL-250500-  
MARINE OBSERVATIONS  
 
STATION/POSITION TIME TEMP WIND PRES VSBY WAVE
 
AIR SEA DIR/SP/G HT/PER  
(UTC) (F) (DEG/KT/KT) (MB) (MI) (FT/S)  
BOSTON BUOY 0350 64 62 200/ 8/ 10 1014.2R 1/10  
BUZZARDS BAY 0300 240/ 12/ 13 1017.1F  
NANTUCKET SOUND 0350 63 230/ 10/ 12 N/A 1  
MASS BAY-STELLWA 0304 63 240/ 8/ 8 1012.8R 1 7/8 2/11  
ISLE OF SHOALS 0300 67 240/ 8/ 8 1014.3R  
S OF BLOCK IS 0326 63 N/A 2/ 9  

 
   
.....................KEY......................
 
 
SKY/WX - SKY CONDITION/PRESENT WEATHER  
TMP - TEMPERATURE IN FAHRENHEIT  
DWPT - DEWPOINT IN FAHRENHEIT  
RH - RELATIVE HUMIDITY IN PERCENT  
WIND - DIRECTION AND SPEED IN MPH  
PRES - MEAN SEA LEVEL PRESSURE IN INCHES OF HG  
WCI - WIND CHILL INDEX  
VSB - VISIBILITY IN MILES  
HX - HEAT INDEX  
TC - TEMPERATURE IN CELSIUS  
VRB - VARIABLE WIND DIRECTION  
N/A - NOT AVAILABLE  
 
 
CLICK HERE TO GO TO PREVIOUS BULLETINS.

The Nexlab MA Page
The Nexlab RI Page
The Nexlab NH Page
The Nexlab CT Page Main Text Page